Location: Tucson
(32.2217°N, 110.9265°W)
Time: 20:13:35
(UTC-07:00)

A-11 Canister half - Pass Details

Date: 27 October 2021
Orbit: 1516 x 1684 km, 47.2° (Epoch: 28 November)

Event Time Altitude Azimuth Distance (km) Brightness Sun altitude
Rises 18:25:54 0° 261° (W) 4,930 14.0 -10.8°
Reaches altitude 10° 18:29:20 10° 267° (W) 3,938 12.7 -11.5°
Maximum altitude 18:38:53 45° 338° (NNW) 2,154 9.9 -13.5°
Enters shadow 18:48:06 11° 49° (NE) 3,813 10.6 -15.4°
